�N����,����,�g�[���i���ԁj���x,�g�[�����x,��g�[���i���ցj���x,����
 2002/11/01, 0:00,15.6,62,14.8,14.7
 2002/11/01, 0:15,15.6,63,14.8,14.8
 2002/11/01, 0:30,15.7,64,14.9,14.8
 2002/11/01, 0:45,15.8,65.5,14.9,14.8
 2002/11/01, 1:00,15.7,67,15,14.8
 2002/11/01, 1:15,15.7,67.5,14.9,14.8
 2002/11/01, 1:30,15.6,69,15,14.8
 2002/11/01, 1:45,15.6,69,15,14.8
 2002/11/01, 2:00,15.6,69,15,14.8
 2002/11/01, 2:15,15.5,67.5,15.1,14.8
 2002/11/01, 2:30,15.5,67,15.1,14.8
 2002/11/01, 2:45,15.5,66,15.1,14.8
 2002/11/01, 3:00,15.5,65,15.1,14.8
 2002/11/01, 3:15,15.5,65.5,15.1,14.8
 2002/11/01, 3:30,15.5,65,15.1,14.8
 2002/11/01, 3:45,15.4,65.5,15,14.8
 2002/11/01, 4:00,15.4,65,15.1,14.8
 2002/11/01, 4:15,15.4,65,15.1,14.8
 2002/11/01, 4:30,15.5,65,15,14.8
 2002/11/01, 4:45,15.4,65,15,14.8
 2002/11/01, 5:00,15.4,65,15.1,14.8
 2002/11/01, 5:15,16,66.5,15.1,14.8
 2002/11/01, 5:30,16.7,67,15,14.9
 2002/11/01, 5:45,16.2,66,15.1,14.9
 2002/11/01, 6:00,16,67,15.2,14.9
 2002/11/01, 6:15,15.9,66.5,15.2,14.9
 2002/11/01, 6:30,15.9,66,15.2,14.9
 2002/11/01, 6:45,15.9,66,15.3,14.9
 2002/11/01, 7:00,15.8,66,15.3,14.9
 2002/11/01, 7:15,15.7,65.5,15.2,14.9
 2002/11/01, 7:30,15.7,65,15.2,14.9
 2002/11/01, 7:45,15.7,65,15.3,14.9
 2002/11/01, 8:00,15.7,65,15.3,14.9
 2002/11/01, 8:15,15.7,65,15.4,14.9
 2002/11/01, 8:30,15.7,65,15.4,14.9
 2002/11/01, 8:45,15.7,65,15.4,14.9
 2002/11/01, 9:00,15.7,65,15.4,15
 2002/11/01, 9:15,15.8,64.5,15.4,15
 2002/11/01, 9:30,15.8,64,15.4,14.9
 2002/11/01, 9:45,15.8,65,15.4,15
 2002/11/01,10:00,15.8,65,15.5,15
 2002/11/01,10:15,15.8,65,15.5,15
 2002/11/01,10:30,15.8,64,15.5,15
 2002/11/01,10:45,15.9,64.5,15.6,15
 2002/11/01,11:00,15.9,64,15.6,15
 2002/11/01,11:15,15.9,63.5,15.6,15
 2002/11/01,11:30,15.9,64,15.6,15
 2002/11/01,11:45,15.9,64,15.7,15
 2002/11/01,12:00,15.9,64,15.7,15
 2002/11/01,12:15,15.9,63,15.7,15.1
 2002/11/01,12:30,16,63,15.7,15
 2002/11/01,12:45,16,63,15.8,15.1
 2002/11/01,13:00,16,63,15.8,15.1
 2002/11/01,13:15,16.1,62.5,15.8,15.1
 2002/11/01,13:30,16.3,61,15.9,15.1
 2002/11/01,13:45,16.6,61,16,15.1
 2002/11/01,14:00,17.1,60,16.1,15.1
 2002/11/01,14:15,17.4,59,16.1,15.1
 2002/11/01,14:30,17.2,60,16.3,15.1
 2002/11/01,14:45,17.1,61,16.3,15.1
 2002/11/01,15:00,17.1,61,16.2,15.1
 2002/11/01,15:15,17.1,61,16.3,15.2
 2002/11/01,15:30,17.2,61,16.3,15.2
 2002/11/01,15:45,17.2,61,16.3,15.2
 2002/11/01,16:00,17.2,61,16.3,15.2
 2002/11/01,16:15,17.2,61,16.3,15.2
 2002/11/01,16:30,17.2,61,16.3,15.2
 2002/11/01,16:45,17.2,61,16.3,15.3
 2002/11/01,17:00,17.2,61,16.3,15.2
 2002/11/01,17:15,17.1,61,16.3,15.3
 2002/11/01,17:30,17.1,61,16.2,15.3
 2002/11/01,17:45,17,61,16.2,15.3
 2002/11/01,18:00,17,61,16.2,15.3
 2002/11/01,18:15,17,61,16.2,15.3
 2002/11/01,18:30,17,61,16.2,15.3
 2002/11/01,18:45,16.9,62,16.2,15.3
 2002/11/01,19:00,16.9,62,16.2,15.3
 2002/11/01,19:15,16.9,62,16.1,15.4
 2002/11/01,19:30,16.8,62,16.1,15.4
 2002/11/01,19:45,16.8,62,16.1,15.4
 2002/11/01,20:00,16.8,62,16.1,15.4
 2002/11/01,20:15,16.8,62,16.1,15.4
 2002/11/01,20:30,16.8,62,16.1,15.5
 2002/11/01,20:45,16.8,62,16.1,15.5
 2002/11/01,21:00,16.7,62,16.2,15.5
 2002/11/01,21:15,16.7,62,16.1,15.5
 2002/11/01,21:30,16.7,62,16.1,15.5
 2002/11/01,21:45,16.6,62,16,15.5
 2002/11/01,22:00,16.6,62,16.1,15.5
 2002/11/01,22:15,16.5,62,15.9,15.5
 2002/11/01,22:30,16.5,62,16,15.5
 2002/11/01,22:45,16.5,62,15.8,15.6
 2002/11/01,23:00,16.4,62,15.8,15.6
 2002/11/01,23:15,16.3,62,15.6,15.6
 2002/11/01,23:30,16.3,62,15.6,15.6
 2002/11/01,23:45,16.2,62,15.5,15.6
 2002/11/02, 0:00,16.1,62,15.5,15.6
 2002/11/02, 0:15,16,61.5,15.4,15.6
 2002/11/02, 0:30,16.1,62,15.2,15.6
 2002/11/02, 0:45,16.2,64.5,15.1,15.6
 2002/11/02, 1:00,16.3,63,15.1,15.6
 2002/11/02, 1:15,16.2,62,15.1,15.6
 2002/11/02, 1:30,16.1,62,15,15.6
 2002/11/02, 1:45,16,61.5,14.9,15.6
 2002/11/02, 2:00,16,61,14.8,15.6
 2002/11/02, 2:15,15.9,60.5,14.8,15.6
 2002/11/02, 2:30,15.9,60,14.8,15.6
 2002/11/02, 2:45,15.8,60,14.7,15.6
 2002/11/02, 3:00,15.7,60,14.6,15.6
 2002/11/02, 3:15,15.6,60,14.6,15.6
 2002/11/02, 3:30,15.5,60,14.6,15.6
 2002/11/02, 3:45,15.4,60,14.4,15.6
 2002/11/02, 4:00,15.3,60,14.4,15.6
 2002/11/02, 4:15,15.2,60,14.3,15.6
 2002/11/02, 4:30,15.2,60,14.3,15.6
 2002/11/02, 4:45,15.1,60,14.2,15.6
 2002/11/02, 5:00,15,60,14.1,15.6
 2002/11/02, 5:15,14.9,60,14.1,15.6
 2002/11/02, 5:30,14.9,60,14.1,15.6
 2002/11/02, 5:45,14.8,60,14.1,15.6
 2002/11/02, 6:00,14.7,60,14,15.6
 2002/11/02, 6:15,14.6,60,14,15.6
 2002/11/02, 6:30,14.6,60,13.9,15.5
 2002/11/02, 6:45,14.5,60,13.9,15.6
 2002/11/02, 7:00,14.5,60,13.9,15.6
 2002/11/02, 7:15,14.6,59,13.8,15.5
 2002/11/02, 7:30,14.6,59,13.8,15.5
 2002/11/02, 7:45,15.1,59,13.8,15.5
 2002/11/02, 8:00,15.7,59,13.9,15.5
 2002/11/02, 8:15,16.7,65,13.9,15.5
 2002/11/02, 8:30,17.4,67,14.2,15.5
 2002/11/02, 8:45,17.5,65.5,14.3,15.5
 2002/11/02, 9:00,17.4,61,14.4,15.4
 2002/11/02, 9:15,16.8,62.5,14.4,15.4
 2002/11/02, 9:30,16.7,63,14.3,15.4
 2002/11/02, 9:45,16.9,58.5,14.6,15.4
 2002/11/02,10:00,16.9,58,15,15.4
 2002/11/02,10:15,16.9,59,14.9,15.4
 2002/11/02,10:30,16.8,59,14.9,15.4
 2002/11/02,10:45,16.8,59.5,14.9,15.4
 2002/11/02,11:00,16.8,59,14.9,15.4
 2002/11/02,11:15,16.8,59,14.9,15.4
 2002/11/02,11:30,17.2,56,15,15.3
 2002/11/02,11:45,17.2,55,15.4,15.3
 2002/11/02,12:00,17.2,55,15.3,15.3
 2002/11/02,12:15,17.4,54.5,15.5,15.3
 2002/11/02,12:30,17.5,54,15.5,15.3
 2002/11/02,12:45,17.7,54,15.5,15.3
 2002/11/02,13:00,18.4,53,15.6,15.3
 2002/11/02,13:15,18.9,51.5,15.6,15.3
 2002/11/02,13:30,19.3,51,15.8,15.3
 2002/11/02,13:45,19.6,50,15.9,15.3
 2002/11/02,14:00,19.6,50,16,15.3
 2002/11/02,14:15,19.6,50,15.9,15.2
 2002/11/02,14:30,19.6,50,16.1,15.3
 2002/11/02,14:45,19.5,50,16,15.2
 2002/11/02,15:00,19.1,51,16.1,15.2
 2002/11/02,15:15,19.2,51,16,15.2
 2002/11/02,15:30,19.2,51,16.1,15.3
 2002/11/02,15:45,19.2,51,16.1,15.2
 2002/11/02,16:00,19,51,16,15.3
 2002/11/02,16:15,18.8,51.5,15.9,15.3
 2002/11/02,16:30,18.7,51,15.8,15.3
 2002/11/02,16:45,18.5,51.5,15.7,15.3
 2002/11/02,17:00,18.3,52,15.6,15.3
 2002/11/02,17:15,18.1,53,15.5,15.3
 2002/11/02,17:30,18.1,54,15.3,15.2
 2002/11/02,17:45,18,55,15.4,15.3
 2002/11/02,18:00,17.8,55,15.3,15.3
 2002/11/02,18:15,17.8,55,15.1,15.3
 2002/11/02,18:30,17.7,55,15.1,15.3
 2002/11/02,18:45,17.5,55,15,15.3
 2002/11/02,19:00,17.5,55,14.9,15.3
 2002/11/02,19:15,17.5,55,14.9,15.2
 2002/11/02,19:30,17.4,54,14.8,15.2
 2002/11/02,19:45,17.3,54,14.7,15.2
 2002/11/02,20:00,17.2,54,14.6,15.3
 2002/11/02,20:15,17.1,54,14.6,15.3
 2002/11/02,20:30,17.1,54,14.4,15.3
 2002/11/02,20:45,17,54,14.5,15.2
 2002/11/02,21:00,16.9,54,14.5,15.3
 2002/11/02,21:15,16.9,54,14.4,15.2
 2002/11/02,21:30,16.8,53,14.2,15.2
 2002/11/02,21:45,16.6,53.5,14.2,15.2
 2002/11/02,22:00,16.6,53,14.2,15.2
 2002/11/02,22:15,16.5,53,14.1,15.2
 2002/11/02,22:30,16.5,54,14.2,15.2
 2002/11/02,22:45,16.8,53.5,14.2,15.2
 2002/11/02,23:00,16.8,54,14.2,15.1
 2002/11/02,23:15,17.3,53.5,14.3,15.1
 2002/11/02,23:30,18.1,54,14.5,15.2
 2002/11/02,23:45,18.4,53,14.6,15.1
 2002/11/03, 0:00,18.7,52,14.5,16.8
 2002/11/03, 0:15,19,50.5,14.3,16.8
 2002/11/03, 0:30,19,50,14,16.7
 2002/11/03, 0:45,18.2,51.5,13.9,16.7
 2002/11/03, 1:00,17.8,52,13.7,16.7
 2002/11/03, 1:15,17.5,52,13.7,16.6
 2002/11/03, 1:30,17.3,52,13.8,16.6
 2002/11/03, 1:45,17.1,52,13.7,16.5
 2002/11/03, 2:00,17,52,13.6,16.5
 2002/11/03, 2:15,16.9,52,13.6,16.5
 2002/11/03, 2:30,16.7,52,13.5,16.4
 2002/11/03, 2:45,16.5,53,13.6,16.4
 2002/11/03, 3:00,16.5,53,13.8,16.3
 2002/11/03, 3:15,16.4,53,13.6,16.3
 2002/11/03, 3:30,16.1,53,13.5,16.3
 2002/11/03, 3:45,15.9,53.5,13.3,16.3
 2002/11/03, 4:00,16,53,13.3,16.2
 2002/11/03, 4:15,15.8,54,13.3,16.2
 2002/11/03, 4:30,15.7,54,13.3,16.2
 2002/11/03, 4:45,15.6,54,13.3,16.1
 2002/11/03, 5:00,15.4,54,13.3,16.1
 2002/11/03, 5:15,15.3,54,13.1,16.1
 2002/11/03, 5:30,15.2,54,13.1,16
 2002/11/03, 5:45,15.1,54,13.1,16
 2002/11/03, 6:00,15,54,13.1,16
 2002/11/03, 6:15,14.9,54,13.1,15.9
 2002/11/03, 6:30,14.8,54,13,15.9
 2002/11/03, 6:45,14.8,54.5,12.9,15.8
 2002/11/03, 7:00,14.7,54,13,15.8
 2002/11/03, 7:15,14.8,54,12.9,15.8
 2002/11/03, 7:30,14.8,54,13,15.8
 2002/11/03, 7:45,14.9,54,13,15.7
 2002/11/03, 8:00,15,54,13,15.7
 2002/11/03, 8:15,15.1,53.5,13.1,15.7
 2002/11/03, 8:30,15.4,53,13.3,15.6
 2002/11/03, 8:45,16.8,56,13.6,15.6
 2002/11/03, 9:00,17.3,51,13.9,15.6
 2002/11/03, 9:15,18.4,55.5,14.6,16.9
 2002/11/03, 9:30,19,55,15.2,16.9
 2002/11/03, 9:45,20.4,51.5,15.8,16.8
 2002/11/03,10:00,21.2,50,16.1,17.2
 2002/11/03,10:15,21.9,49,16.1,17.2
 2002/11/03,10:30,22,49,16.3,17.2
 2002/11/03,10:45,21.7,48.5,16.2,17.2
 2002/11/03,11:00,21.9,49,15.9,17.1
 2002/11/03,11:15,22,48.5,16,17.1
 2002/11/03,11:30,21.5,47,16.2,17
 2002/11/03,11:45,21,48,16,17
 2002/11/03,12:00,20.8,48,15.9,17
 2002/11/03,12:15,20.6,48,16,17
 2002/11/03,12:30,20.9,48,16,17
 2002/11/03,12:45,21.4,46.5,16.1,16.9
 2002/11/03,13:00,21.2,46,16.2,16.9
 2002/11/03,13:15,20.6,47.5,16.1,16.9
 2002/11/03,13:30,20.4,48,16,16.8
 2002/11/03,13:45,19.9,49.5,15.9,16.8
 2002/11/03,14:00,20.1,49,15.9,16.8
 2002/11/03,14:15,19.5,50.5,15.9,16.8
 2002/11/03,14:30,19.2,51,15.7,16.8
 2002/11/03,14:45,19.1,52,15.6,16.8
 2002/11/03,15:00,19.1,52,15.6,16.8
 2002/11/03,15:15,19,52,15.6,16.8
 2002/11/03,15:30,18.8,52,15.6,16.7
 2002/11/03,15:45,18.8,52.5,15.5,16.7
 2002/11/03,16:00,18.6,53,15.5,16.7
 2002/11/03,16:15,18.5,53,15.4,16.7
 2002/11/03,16:30,18.3,53,15.3,16.7
 2002/11/03,16:45,18.1,53,15.3,16.7
 2002/11/03,17:00,18.1,53,15.3,16.7
 2002/11/03,17:15,18,53,15.1,16.7
 2002/11/03,17:30,17.8,53,15.1,16.7
 2002/11/03,17:45,17.8,53.5,15.1,16.7
 2002/11/03,18:00,17.6,54,15,16.6
 2002/11/03,18:15,17.5,54,15,16.6
 2002/11/03,18:30,17.4,54,15,16.6
 2002/11/03,18:45,17.4,54,15,16.6
 2002/11/03,19:00,17.3,54,14.9,16.6
 2002/11/03,19:15,17.2,54,14.9,16.6
 2002/11/03,19:30,17.1,54,14.8,16.6
 2002/11/03,19:45,17,54.5,14.8,16.6
 2002/11/03,20:00,16.9,55,14.8,16.6
 2002/11/03,20:15,16.9,55,14.7,16.6
 2002/11/03,20:30,16.7,55,14.7,16.6
 2002/11/03,20:45,16.6,55,14.6,16.6
 2002/11/03,21:00,16.6,55,14.6,16.5
 2002/11/03,21:15,16.5,55,14.6,16.5
 2002/11/03,21:30,16.5,55,14.6,16.5
 2002/11/03,21:45,16.4,55,14.5,16.5
 2002/11/03,22:00,16.2,55,14.4,16.5
 2002/11/03,22:15,16.2,55,14.4,16.5
 2002/11/03,22:30,16.2,56,14.4,16.5
 2002/11/03,22:45,16.6,58,14.4,16.5
 2002/11/03,23:00,17.4,56,14.3,16.5
 2002/11/03,23:15,18,54.5,14.2,16.7
 2002/11/03,23:30,18.6,53,14.2,16.7
 2002/11/03,23:45,18.9,52,14.1,16.6
 2002/11/04, 0:00,19.2,51,14.1,16.6
 2002/11/04, 0:15,18.5,50.5,14.1,16.6
 2002/11/04, 0:30,17.9,52,14,16.6
 2002/11/04, 0:45,17.6,52.5,13.9,16.6
 2002/11/04, 1:00,17.3,53,13.9,16.6
 2002/11/04, 1:15,17,53,13.8,16.5
 2002/11/04, 1:30,16.8,53,13.7,16.5
 2002/11/04, 1:45,16.6,53.5,13.7,16.5
 2002/11/04, 2:00,16.5,54,13.7,16.5
 2002/11/04, 2:15,16.4,54,13.6,16.5
 2002/11/04, 2:30,16.2,54,13.5,16.5
 2002/11/04, 2:45,16,54,13.5,16.4
 2002/11/04, 3:00,15.9,54,13.4,16.4
 2002/11/04, 3:15,15.9,54,13.4,16.4
 2002/11/04, 3:30,15.8,54,13.3,16.4
 2002/11/04, 3:45,15.6,54,13.3,16.4
 2002/11/04, 4:00,15.6,54,13.3,16.3
 2002/11/04, 4:15,15.4,54.5,13.2,16.3
 2002/11/04, 4:30,15.3,55,13.2,16.3
 2002/11/04, 4:45,15.2,55,13.1,16.3
 2002/11/04, 5:00,15.2,55,13.1,16.2
 2002/11/04, 5:15,15.1,55,13.1,16.2
 2002/11/04, 5:30,14.9,55,13,16.2
 2002/11/04, 5:45,14.8,55,12.9,16.2
 2002/11/04, 6:00,14.7,55,12.8,16.2
 2002/11/04, 6:15,14.6,55,12.8,16.1
 2002/11/04, 6:30,14.5,55,12.6,16.1
 2002/11/04, 6:45,14.4,55,12.4,16.1
 2002/11/04, 7:00,14.2,55,12.4,16.1
 2002/11/04, 7:15,14.2,54.5,12.3,16
 2002/11/04, 7:30,14.3,54,12.3,16
 2002/11/04, 7:45,14.4,54,12.3,16
 2002/11/04, 8:00,14.5,53,12.3,15.9
 2002/11/04, 8:15,14.6,53,12.3,15.9
 2002/11/04, 8:30,14.6,52,12.4,15.9
 2002/11/04, 8:45,14.8,52,12.6,15.9
 2002/11/04, 9:00,14.8,51,12.8,15.8
 2002/11/04, 9:15,15.1,50,13.3,15.8
 2002/11/04, 9:30,16.2,49,13.7,15.8
 2002/11/04, 9:45,17.5,48.5,14,15.7
 2002/11/04,10:00,18.6,53,14.3,15.7
 2002/11/04,10:15,19,52,14.4,15.7
 2002/11/04,10:30,19,45,14.8,15.7
 2002/11/04,10:45,18.7,44,15.3,15.7
 2002/11/04,11:00,19,45,15.4,15.6
 2002/11/04,11:15,19.5,46.5,15.6,15.6
 2002/11/04,11:30,19.6,48,15.9,15.6
 2002/11/04,11:45,19.8,47,15.7,15.6
 2002/11/04,12:00,19.9,46,15.7,15.6
 2002/11/04,12:15,20,45,15.6,15.5
 2002/11/04,12:30,20.2,45,15.7,15.6
 2002/11/04,12:45,20.6,44.5,15.7,15.6
 2002/11/04,13:00,20.8,43,15.6,15.5
 2002/11/04,13:15,20.8,43,15.4,15.5
 2002/11/04,13:30,20.6,43,15.3,15.5
 2002/11/04,13:45,20.1,42.5,15.1,15.5
 2002/11/04,14:00,20.1,42,14.9,15.5
 2002/11/04,14:15,19.9,43,14.8,15.5
 2002/11/04,14:30,19.7,43,14.7,15.5
 2002/11/04,14:45,19.4,43.5,14.7,15.5
 2002/11/04,15:00,19.2,44,14.6,15.5
 2002/11/04,15:15,19.3,44,14.6,15.5
 2002/11/04,15:30,19.4,44,14.5,15.5
 2002/11/04,15:45,19.3,44,14.5,15.5
 2002/11/04,16:00,19.2,44,14.4,15.5
 2002/11/04,16:15,19,44,14.4,15.4
 2002/11/04,16:30,18.9,44,14.3,15.5
 2002/11/04,16:45,18.6,45,14.2,15.5
 2002/11/04,17:00,18.5,45,14.1,15.4
 2002/11/04,17:15,18.2,45,13.9,15.4
 2002/11/04,17:30,18.1,45,13.9,15.4
 2002/11/04,17:45,18,45.5,13.8,15.4
 2002/11/04,18:00,17.8,45,13.7,15.4
 2002/11/04,18:15,17.6,46,13.6,15.4
 2002/11/04,18:30,17.5,46,13.5,15.4
 2002/11/04,18:45,17.4,46,13.4,15.4
 2002/11/04,19:00,17.3,46,13.4,15.4
 2002/11/04,19:15,17.1,46,13.2,15.4
 2002/11/04,19:30,17,46,13.3,15.4
 2002/11/04,19:45,16.9,47,13.2,15.4
 2002/11/04,20:00,16.8,47,13.1,15.3
 2002/11/04,20:15,16.8,47,13.1,15.3
 2002/11/04,20:30,16.6,47,13,15.3
 2002/11/04,20:45,16.5,47,12.9,15.3
 2002/11/04,21:00,16.5,47,12.9,15.3
 2002/11/04,21:15,16.4,47,12.8,15.3
 2002/11/04,21:30,16.7,49,12.8,15.3
 2002/11/04,21:45,17.3,44.5,12.7,15.3
 2002/11/04,22:00,18,44,12.7,15.3
 2002/11/04,22:15,18.5,44,12.8,15.2
 2002/11/04,22:30,18.7,44,12.8,15.2
 2002/11/04,22:45,19,43,12.8,15.2
 2002/11/04,23:00,19.2,43,12.8,15.2
 2002/11/04,23:15,19.4,42.5,12.8,15.2
 2002/11/04,23:30,19.5,42,12.7,15.1
 2002/11/04,23:45,19.6,42,12.6,15.1
 2002/11/05, 0:00,19.7,41,12.6,15.1
 2002/11/05, 0:15,19.6,40.5,12.6,15.1
 2002/11/05, 0:30,19.5,40,12.6,15.1
 2002/11/05, 0:45,18.5,43,12.4,15.1
 2002/11/05, 1:00,17.9,44,12.4,15.1
 2002/11/05, 1:15,17.5,44.5,12.3,15.1
 2002/11/05, 1:30,17.2,45,12.2,15
 2002/11/05, 1:45,16.9,46,12.2,15
 2002/11/05, 2:00,16.5,46,12.1,15
 2002/11/05, 2:15,16.4,46,12.1,15
 2002/11/05, 2:30,16.1,47,12,15
 2002/11/05, 2:45,15.9,47,11.9,15
 2002/11/05, 3:00,15.7,47,11.8,14.9
 2002/11/05, 3:15,15.6,47,11.8,14.9
 2002/11/05, 3:30,15.4,47,11.7,14.9
 2002/11/05, 3:45,15.2,47.5,11.6,14.9
 2002/11/05, 4:00,15,48,11.6,14.8
 2002/11/05, 4:15,14.9,48,11.6,14.9
 2002/11/05, 4:30,14.8,48,11.5,14.9
 2002/11/05, 4:45,14.6,48,11.6,14.8
 2002/11/05, 5:00,14.5,48,11.5,14.8
 2002/11/05, 5:15,14.3,49,11.4,14.8
 2002/11/05, 5:30,14.3,49,11.4,14.8
 2002/11/05, 5:45,14.1,49,11.3,14.8
 2002/11/05, 6:00,14,49,11.2,14.7
 2002/11/05, 6:15,13.9,49,11.2,14.7
 2002/11/05, 6:30,13.7,49,11.2,14.7
 2002/11/05, 6:45,13.6,49.5,11.1,14.7
 2002/11/05, 7:00,13.5,50,11.1,14.6
 2002/11/05, 7:15,13.4,50,11,14.6
 2002/11/05, 7:30,13.8,50,11.1,14.6
 2002/11/05, 7:45,14.7,49.5,11.1,14.6
 2002/11/05, 8:00,15.3,50,11,14.6
 2002/11/05, 8:15,15.2,49,11.1,14.6
 2002/11/05, 8:30,15.2,48,11.3,14.6
 2002/11/05, 8:45,15.4,47.5,11.6,14.5
 2002/11/05, 9:00,15.7,47,12.1,14.5
 2002/11/05, 9:15,15.9,46,12.5,14.5
 2002/11/05, 9:30,16,45,12.9,14.5
 2002/11/05, 9:45,16,44,13.1,14.4
 2002/11/05,10:00,16.3,44,13.6,14.4
 2002/11/05,10:15,16.5,43,13.8,14.4
 2002/11/05,10:30,16.7,42,14.1,14.4
 2002/11/05,10:45,16.9,42,14.4,14.4
 2002/11/05,11:00,17.1,41,14.7,14.4
 2002/11/05,11:15,17.3,41,15,14.4
 2002/11/05,11:30,17.5,41,15.3,14.4
 2002/11/05,11:45,17.7,41,15.4,14.3
 2002/11/05,12:00,17.9,41,15.5,14.4
 2002/11/05,12:15,18.1,40,15.6,14.4
 2002/11/05,12:30,18.3,40,15.6,14.3
 2002/11/05,12:45,17.9,41,15.4,14.3
 2002/11/05,13:00,17.5,42,15.1,14.3
 2002/11/05,13:15,17.7,41.5,14.9,14.3
 2002/11/05,13:30,18.4,40,14.9,14.3
 2002/11/05,13:45,18.4,40.5,14.9,14.3
 2002/11/05,14:00,17.9,41,14.9,14.3
 2002/11/05,14:15,17.8,42,14.8,14.3
 2002/11/05,14:30,18,41,14.8,14.3
 2002/11/05,14:45,17.8,41.5,14.8,14.3
 2002/11/05,15:00,17.4,42,14.7,14.3
 2002/11/05,15:15,17.4,43,14.6,14.3
 2002/11/05,15:30,17.3,43,14.6,14.3
 2002/11/05,15:45,17.3,43,14.5,14.3
 2002/11/05,16:00,17.3,43,14.5,14.4
 2002/11/05,16:15,17,44,14.4,14.4
 2002/11/05,16:30,17,44,14.3,14.4
 2002/11/05,16:45,16.8,44,14.4,14.4
 2002/11/05,17:00,16.7,45,14.3,14.4
 2002/11/05,17:15,16.5,45,14.2,14.4
 2002/11/05,17:30,16.4,45,14.1,14.4
 2002/11/05,17:45,16.3,45,14.1,14.4
 2002/11/05,18:00,16.2,46,14,14.4
 2002/11/05,18:15,16.1,46,14,14.4
 2002/11/05,18:30,16,46,13.9,14.4
 2002/11/05,18:45,15.9,46.5,13.8,14.4
 2002/11/05,19:00,15.9,47,13.8,14.4
 2002/11/05,19:15,15.8,47,13.7,14.4
 2002/11/05,19:30,15.7,47,13.6,14.4
 2002/11/05,19:45,15.6,47,13.5,14.4
 2002/11/05,20:00,15.5,47,13.5,14.4
 2002/11/05,20:15,15.4,47.5,13.4,14.4
 2002/11/05,20:30,15.3,48,13.4,14.4
 2002/11/05,20:45,15.2,48,13.2,14.4
 2002/11/05,21:00,15.1,48,13.2,14.5
 2002/11/05,21:15,15,48,13.2,14.4
 2002/11/05,21:30,14.9,48,13.1,14.5
 2002/11/05,21:45,14.8,48,13.1,14.4
 2002/11/05,22:00,14.7,49,13.1,14.4
 2002/11/05,22:15,14.6,49,12.9,14.5
 2002/11/05,22:30,14.6,49,12.8,14.4
 2002/11/05,22:45,14.5,49,12.8,14.4
 2002/11/05,23:00,14.5,49,12.7,14.5
 2002/11/05,23:15,14.4,49,12.6,14.4
 2002/11/05,23:30,14.3,49,12.6,14.4
 2002/11/05,23:45,14.2,49.5,12.6,14.4
 2002/11/06, 0:00,14.1,50,12.5,14.5
 2002/11/06, 0:15,14,50,12.5,14.4
 2002/11/06, 0:30,13.9,50,12.4,14.4
 2002/11/06, 0:45,13.9,50,12.3,14.4
 2002/11/06, 1:00,13.7,50,12.2,14.4
 2002/11/06, 1:15,13.6,50.5,12.1,14.4
 2002/11/06, 1:30,13.6,51,12.1,14.4
 2002/11/06, 1:45,13.5,51,12,14.4
 2002/11/06, 2:00,13.4,51,12,14.4
 2002/11/06, 2:15,13.4,51,11.9,14.4
 2002/11/06, 2:30,14.2,51,12,14.4
 2002/11/06, 2:45,15.1,49.5,11.9,14.4
 2002/11/06, 3:00,15.6,49,11.8,14.4
 2002/11/06, 3:15,15.6,48,11.8,14.4
 2002/11/06, 3:30,15,49,11.7,14.4
 2002/11/06, 3:45,14.6,49,11.7,14.3
 2002/11/06, 4:00,14.2,50,11.7,14.4
 2002/11/06, 4:15,14.1,50,11.6,14.3
 2002/11/06, 4:30,13.9,50,11.6,14.3
 2002/11/06, 4:45,13.8,50,11.6,14.3
 2002/11/06, 5:00,13.6,50,11.5,14.3
 2002/11/06, 5:15,13.4,51,11.4,14.3
 2002/11/06, 5:30,13.3,51,11.4,14.3
 2002/11/06, 5:45,13.2,51,11.4,14.3
 2002/11/06, 6:00,13.1,51,11.3,14.2
 2002/11/06, 6:15,13,51,11.2,14.3
 2002/11/06, 6:30,12.9,51,11.2,14.2
 2002/11/06, 6:45,12.8,51,11.1,14.2
 2002/11/06, 7:00,12.7,52,11.1,14.2
 2002/11/06, 7:15,12.9,52,11.2,14.2
 2002/11/06, 7:30,13.8,51,11.2,14.2
 2002/11/06, 7:45,14.3,50.5,11.1,14.2
 2002/11/06, 8:00,14.2,50,11.2,14.2
 2002/11/06, 8:15,14.2,50,11.1,14.1
 2002/11/06, 8:30,14.7,50,11.5,14.1
 2002/11/06, 8:45,14.9,49.5,11.8,14.1
 2002/11/06, 9:00,15.2,49,12,14.1
 2002/11/06, 9:15,15.1,49,12.2,14.1
 2002/11/06, 9:30,15.1,48,12.5,14.1
 2002/11/06, 9:45,14.9,48,12.8,14.1
 2002/11/06,10:00,14.6,49,12.6,14.1
 2002/11/06,10:15,14.5,49,12.4,14.1
 2002/11/06,10:30,14.5,49,12.3,14.1
 2002/11/06,10:45,14.5,49,12.4,14.1
 2002/11/06,11:00,14.9,49,12.7,14
 2002/11/06,11:15,15.2,48,13,14
 2002/11/06,11:30,15.8,47,13.6,14
 2002/11/06,11:45,16.1,47,14.1,14
 2002/11/06,12:00,16.3,46,14.3,14
 2002/11/06,12:15,16.6,45.5,14.4,14
 2002/11/06,12:30,17,45,14.5,14
 2002/11/06,12:45,17.2,44,14.5,14
 2002/11/06,13:00,17.5,44,14.5,14
 2002/11/06,13:15,17.5,44,14.4,14
 2002/11/06,13:30,18,43,14.4,14
 2002/11/06,13:45,18.4,42.5,14.4,14
 2002/11/06,14:00,18.5,42,14.5,14
 2002/11/06,14:15,18.5,42,14.5,14
 2002/11/06,14:30,18.4,42,14.5,14
 2002/11/06,14:45,17.9,43.5,14.6,14.1
 2002/11/06,15:00,17.7,45,14.5,14
 2002/11/06,15:15,17.6,45,14.4,14.1
 2002/11/06,15:30,17.7,45,14.4,14
 2002/11/06,15:45,17.6,45,14.3,14.1
 2002/11/06,16:00,17.5,46,14.3,14.1
 2002/11/06,16:15,17.4,46,14.2,14.1
 2002/11/06,16:30,17.2,46,14.1,14.1
 2002/11/06,16:45,17,47,14.1,14.1
 2002/11/06,17:00,16.8,47,14.1,14.1
 2002/11/06,17:15,16.7,48,14.1,14.1
 2002/11/06,17:30,16.6,48,14,14.1
 2002/11/06,17:45,16.4,48,13.9,14.1
 2002/11/06,18:00,16.3,48,13.9,14.1
 2002/11/06,18:15,16.2,49,13.9,14.1
 2002/11/06,18:30,16.1,49,13.8,14.1
 2002/11/06,18:45,16,49,13.7,14.2
 2002/11/06,19:00,15.9,49,13.6,14.2
 2002/11/06,19:15,15.8,50,13.6,14.1
 2002/11/06,19:30,15.7,50,13.5,14.2
 2002/11/06,19:45,15.6,50,13.4,14.2
 2002/11/06,20:00,15.5,50,13.4,14.2
 2002/11/06,20:15,15.4,50,13.2,14.2
 2002/11/06,20:30,15.3,51,13.2,14.2
 2002/11/06,20:45,15.1,51,13.1,14.2
 2002/11/06,21:00,15.1,51,13,14.2
 2002/11/06,21:15,14.9,51,13,14.2
 2002/11/06,21:30,14.9,51,13,14.2
 2002/11/06,21:45,14.8,52,12.9,14.2
 2002/11/06,22:00,14.7,52,12.8,14.2
 2002/11/06,22:15,14.6,52,12.7,14.2
 2002/11/06,22:30,14.6,52,12.7,14.2
 2002/11/06,22:45,14.5,52,12.6,14.2
 2002/11/06,23:00,14.6,52,12.6,14.2
 2002/11/06,23:15,14.8,53,12.6,14.2
 2002/11/06,23:30,15,54,12.6,14.2
 2002/11/06,23:45,16.5,57,12.5,14.2
 2002/11/07, 0:00,17.2,57,12.5,14.2
 2002/11/07, 0:15,17.8,56,12.5,14.2
 2002/11/07, 0:30,18.1,57,12.5,14.2
 2002/11/07, 0:45,18.8,57.5,12.4,14.2
 2002/11/07, 1:00,18.9,56,12.4,14.2
 2002/11/07, 1:15,19.1,55.5,12.4,14.2
 2002/11/07, 1:30,18.5,53,12.3,14.2
 2002/11/07, 1:45,17.7,54,12.4,14.2
 2002/11/07, 2:00,17.1,54,12.3,14.2
 2002/11/07, 2:15,16.7,54,12.2,14.2
 2002/11/07, 2:30,16.4,54,12.2,14.2
 2002/11/07, 2:45,16.2,54,12.1,14.2
 2002/11/07, 3:00,16,54,12.1,14.2
 2002/11/07, 3:15,15.8,54,12.1,14.2
 2002/11/07, 3:30,15.5,54,12,14.2
 2002/11/07, 3:45,15.4,54,11.9,14.2
 2002/11/07, 4:00,15.2,54,11.9,14.2
 2002/11/07, 4:15,15,54,11.8,14.2
 2002/11/07, 4:30,14.8,54,11.7,14.1
 2002/11/07, 4:45,14.6,54,11.6,14.1
 2002/11/07, 5:00,14.5,54,11.6,14.1
 2002/11/07, 5:15,14.4,54,11.6,14.1
 2002/11/07, 5:30,14.2,54,11.5,14.1
 2002/11/07, 5:45,14.1,54,11.4,14.1
 2002/11/07, 6:00,14,54,11.3,14.1
 2002/11/07, 6:15,13.8,54,11.4,14.1
 2002/11/07, 6:30,13.7,54,11.2,14.1
 2002/11/07, 6:45,13.5,54,11.1,14.1
 2002/11/07, 7:00,13.4,54,11.1,14
 2002/11/07, 7:15,13.6,55,11,14
 2002/11/07, 7:30,15.5,57,10.9,14
 2002/11/07, 7:45,16.2,57.5,10.9,14
 2002/11/07, 8:00,16.8,57,10.9,14
 2002/11/07, 8:15,16.1,54.5,10.9,14
 2002/11/07, 8:30,16,54,11.1,13.9
 2002/11/07, 8:45,17.2,53.5,11.4,13.9
 2002/11/07, 9:00,18.2,52,11.9,13.9
 2002/11/07, 9:15,19,51,12.2,13.9
 2002/11/07, 9:30,19.7,48,12.7,13.9
 2002/11/07, 9:45,20.1,47,12.9,13.9
 2002/11/07,10:00,20,46,13.3,13.8
 2002/11/07,10:15,19.1,46,13.6,13.8
 2002/11/07,10:30,19,46,13.8,13.8
 2002/11/07,10:45,18.9,46,14.1,13.8
 2002/11/07,11:00,19,46,14.2,13.8
 2002/11/07,11:15,19.1,45,14.5,13.8
 2002/11/07,11:30,19.3,45,14.8,13.8
 2002/11/07,11:45,19.5,45,14.9,13.8
 2002/11/07,12:00,19.7,45,15,13.8
 2002/11/07,12:15,20,45,15.1,13.8
 2002/11/07,12:30,20,45,15.1,13.8
 2002/11/07,12:45,20,45,15.1,13.7
 2002/11/07,13:00,20.2,45,14.9,13.7
 2002/11/07,13:15,20.4,44,14.9,13.7
 2002/11/07,13:30,20.6,44,14.8,13.8
 2002/11/07,13:45,20.6,44,14.8,13.7
 2002/11/07,14:00,20.5,45,14.8,13.7
 2002/11/07,14:15,20.1,45,14.9,13.7
 2002/11/07,14:30,19.8,46,14.8,13.7
 2002/11/07,14:45,19.5,46,14.8,13.7
 2002/11/07,15:00,19.4,46,14.8,13.7
 2002/11/07,15:15,19.3,46.5,14.8,13.7
 2002/11/07,15:30,19.2,47,14.8,13.7
 2002/11/07,15:45,19,47,14.8,13.8
 2002/11/07,16:00,19,47,14.7,13.7
 2002/11/07,16:15,18.8,47.5,14.7,13.7
 2002/11/07,16:30,18.7,48,14.7,13.7
 2002/11/07,16:45,18.5,48,14.7,13.8
 2002/11/07,17:00,18.5,48,14.7,13.8
 2002/11/07,17:15,18.4,48,14.7,13.8
 2002/11/07,17:30,18.3,49,14.6,13.8
 2002/11/07,17:45,18.1,49,14.6,13.8
 2002/11/07,18:00,18,49,14.5,13.7
 2002/11/07,18:15,17.9,49.5,14.5,13.8
 2002/11/07,18:30,17.7,50,14.4,13.8
 2002/11/07,18:45,17.5,50,14.4,13.8